Tracking 18980 objects as of 21-Feb-2018
HD Live streaming from Space Station
objects crossing your sky now

NOAA 16 DEB

Track NOAA 16 DEB now!
10-day predictions


NORAD ID: 41086
Int'l Code: 2000-055AV
Perigee: 782.9 km
Apogee: 854.3 km
Inclination: 98.8 °
Period: 101.1 minutes
Semi major axis: 7189 km
RCS: Unknown
Launch date: September 21, 2000
Source: United States (US)
Launch site: AIR FORCE WESTERN TEST RANGE (AFWTR)

Note: This is SATELLITE DEBRIS
aabbcc
Your satellite tracking list
Your tracking list is empty




NASA's NSSDC Master Catalog

Two Line Element Set (TLE):
1 41086U 00055AV  18051.44346837  .00000739  00000-0  33652-3 0  9994
2 41086  98.7921 134.6252 0049656 274.2055  85.3450 14.24120054116067
Source of the keplerian elements: AFSPC